Simultaneous Nadir Overpasses (SNOs) Predictions

Prediction of SNOs between FY3D and AQUA Satellite Orbit:

Table of predicted SNOs for the next 14.0 days since TLE Epoch: 3/27/2020
Index Date (FY3D) Time (FY3D) Lat,Lon (FY3D) SZA (FY3D ) Date (AQUA) Time (AQUA) Lat,Lon (AQUA) SZA (AQUA ) Distance(km) Time Diff (sec)
1 03/30/2020 00:50:18 65.84, 29.79 104.29 03/30/2020 00:51:21 65.84, 29.77 104.23 0.79 63
2 03/30/2020 01:39:53 -69.69,-158.13 79.67 03/30/2020 01:39:40 -69.69,-158.15 79.65 0.90 13
3 04/01/2020 17:07:03 64.71, 144.55 104.38 04/01/2020 17:08:10 64.72, 144.60 104.29 2.20 67
4 04/01/2020 17:56:17 -69.71, -42.20 80.74 04/01/2020 17:56:09 -69.71, -42.25 80.71 2.20 8
5 04/01/2020 18:38:58 76.79,-117.99 72.54 04/01/2020 18:37:46 77.37,-115.29 72.92 92.93 72
6 04/04/2020 09:23:23 64.90, -99.36 103.16 04/04/2020 09:24:35 64.90, -99.36 103.07 0.07 72
7 04/04/2020 10:12:57 -68.83, 72.45 80.86 04/04/2020 10:12:53 -68.83, 72.48 80.87 1.04 4
8 04/04/2020 10:58:55 80.92, -69.01 83.32 04/04/2020 10:57:42 81.34, -70.03 83.55 49.65 73
9 04/07/2020 01:41:57 57.64, 10.92 109.29 04/07/2020 01:43:10 57.61, 11.23 109.10 19.09 73
10 04/07/2020 02:29:18 -69.01,-171.40 82.08 04/07/2020 02:29:19 -69.00,-171.43 82.07 1.29 1
11 04/07/2020 03:18:28 73.81, 4.61 92.76 04/07/2020 03:17:14 73.88, 4.41 92.84 10.02 74
12 04/09/2020 18:45:55 -68.33, -56.40 82.39 04/09/2020 18:46:00 -68.33, -56.38 82.40 0.88 5




NCC Satellite Simultaneous Nadir Overpasses (SNOs) Prediction Service
